AXM110 LEBL-LEPA

Flight info

Callsign AXM110
Flight time N/A
Altitude 17000
Route LARPA2K LARPA N859 TOLSO TOLSO2P
Aircraft A333/H-V/N

Departure

Time N/A
Airport Josep Tarradellas Barcelona-El Prat Airport (LEBL)

Arrival

Time 2026-05-05 14:01
Airport Palma de Mallorca Airport (LEPA)
Time Latitude Longitude Altitude Speed Heading
2026-05-05 13:44 39.61109 2.87942 2014 ft 155 kts 240°
2026-05-05 13:44 39.60550 2.86747 1844 ft 155 kts 240°
2026-05-05 13:44 39.59985 2.85546 1652 ft 155 kts 240°
2026-05-05 13:45 39.59428 2.84366 1446 ft 149 kts 240°
2026-05-05 13:45 39.58903 2.83252 1256 ft 143 kts 239°
2026-05-05 13:45 39.58386 2.82160 1084 ft 141 kts 239°
2026-05-05 13:45 39.57876 2.81079 904 ft 140 kts 239°
2026-05-05 13:46 39.57355 2.79994 718 ft 140 kts 239°
2026-05-05 13:46 39.56853 2.78916 539 ft 140 kts 239°
2026-05-05 13:46 39.56350 2.77866 359 ft 137 kts 238°
2026-05-05 13:46 39.55845 2.76796 158 ft 136 kts 236°
2026-05-05 13:47 39.55344 2.75760 27 ft 126 kts 238°
2026-05-05 13:47 39.55103 2.75265 28 ft 97 kts 235°
2026-05-05 13:47 39.64214 2.94536 2127 ft 207 kts 238°
2026-05-05 13:47 39.63496 2.93018 2090 ft 192 kts 240°
2026-05-05 13:48 39.62858 2.91644 2136 ft 164 kts 239°
2026-05-05 13:48 39.62279 2.90406 2164 ft 163 kts 239°
2026-05-05 13:48 39.61690 2.89155 2095 ft 159 kts 239°
2026-05-05 13:48 39.61113 2.87934 2077 ft 163 kts 240°
2026-05-05 13:49 39.60522 2.86685 1853 ft 162 kts 240°
2026-05-05 13:49 39.59933 2.85433 1645 ft 162 kts 240°
2026-05-05 13:49 39.59360 2.84221 1429 ft 154 kts 239°
2026-05-05 13:49 39.58826 2.83093 1225 ft 144 kts 238°
2026-05-05 13:50 39.58305 2.81990 1051 ft 141 kts 238°
2026-05-05 13:50 39.57790 2.80901 871 ft 141 kts 237°
2026-05-05 13:50 39.57277 2.79829 691 ft 141 kts 239°
2026-05-05 13:50 39.56768 2.78737 509 ft 140 kts 239°
2026-05-05 13:51 39.56251 2.77677 311 ft 139 kts 234°
2026-05-05 13:51 39.55749 2.76612 130 ft 139 kts 239°
2026-05-05 13:51 39.55260 2.75578 27 ft 118 kts 239°
2026-05-05 13:51 39.54919 2.74856 29 ft 68 kts 243°
2026-05-05 13:52 39.64214 2.94536 2122 ft 207 kts 238°
2026-05-05 13:52 39.63551 2.93135 2071 ft 194 kts 240°
2026-05-05 13:52 39.62890 2.91709 2016 ft 177 kts 240°
2026-05-05 13:52 39.62246 2.90337 2235 ft 179 kts 239°
2026-05-05 13:53 39.61592 2.88945 2212 ft 185 kts 239°
2026-05-05 13:53 39.60936 2.87561 1954 ft 170 kts 240°
2026-05-05 13:53 39.60354 2.86328 1723 ft 152 kts 240°
2026-05-05 13:53 39.59814 2.85181 1550 ft 147 kts 240°
2026-05-05 13:54 39.59287 2.84062 1385 ft 145 kts 239°
2026-05-05 13:54 39.58765 2.82960 1211 ft 142 kts 238°
2026-05-05 13:54 39.58248 2.81868 1039 ft 142 kts 238°
2026-05-05 13:54 39.57734 2.80781 855 ft 141 kts 238°
2026-05-05 13:55 39.57212 2.79688 667 ft 141 kts 238°
2026-05-05 13:55 39.56987 2.79209 590 ft 140 kts 238°
2026-05-05 13:55 39.56481 2.78141 401 ft 139 kts 237°
2026-05-05 13:55 39.55965 2.77075 218 ft 141 kts 237°
2026-05-05 13:56 39.55467 2.76013 63 ft 136 kts 237°
2026-05-05 13:56 39.55052 2.75146 28 ft 102 kts 236°
2026-05-05 13:56 39.64208 2.94523 2122 ft 207 kts 238°
2026-05-05 13:56 39.63465 2.92951 2058 ft 197 kts 240°
2026-05-05 13:57 39.62790 2.91495 2190 ft 172 kts 239°
2026-05-05 13:57 39.62390 2.90644 2168 ft 165 kts 239°
2026-05-05 13:57 39.61624 2.89016 2088 ft 152 kts 239°
2026-05-05 13:57 39.61068 2.87835 2050 ft 156 kts 240°
2026-05-05 13:58 39.60503 2.86641 1844 ft 155 kts 240°
2026-05-05 13:58 39.59933 2.85436 1646 ft 155 kts 239°
2026-05-05 13:58 39.59383 2.84271 1445 ft 151 kts 240°
2026-05-05 13:58 39.59026 2.83513 1316 ft 147 kts 239°
2026-05-05 13:59 39.57782 2.80882 874 ft 145 kts 237°
2026-05-05 13:59 39.57257 2.79784 685 ft 144 kts 239°
2026-05-05 14:00 39.56387 2.77947 373 ft 142 kts 238°
2026-05-05 14:00 39.55870 2.76842 191 ft 142 kts 236°
2026-05-05 14:00 39.55189 2.75422 28 ft 121 kts 238°
2026-05-05 14:00 39.54866 2.74764 30 ft 77 kts 232°
2026-05-05 14:01 39.54750 2.74501 36 ft 49 kts 244°
2026-05-05 14:01 39.54668 2.74321 41 ft 0 kts 238°
2026-05-05 14:03 39.63938 2.93960 2117 ft 203 kts 238°
2026-05-05 14:04 39.63228 2.92469 2081 ft 186 kts 240°
2026-05-05 14:04 39.62812 2.91560 2126 ft 160 kts 239°
2026-05-05 14:04 39.62244 2.90341 2146 ft 159 kts 239°
2026-05-05 14:04 39.61505 2.88765 2109 ft 152 kts 239°
2026-05-05 14:05 39.60945 2.87578 2002 ft 155 kts 239°
2026-05-05 14:05 39.60564 2.86771 1865 ft 155 kts 239°
2026-05-05 14:05 39.59822 2.85201 1607 ft 153 kts 239°
2026-05-05 14:05 39.59446 2.84402 1473 ft 153 kts 239°
2026-05-05 14:06 39.58898 2.83243 1276 ft 151 kts 239°
2026-05-05 14:06 39.58342 2.82083 1045 ft 149 kts 237°
2026-05-05 14:06 39.57813 2.80941 871 ft 149 kts 237°
2026-05-05 14:06 39.57262 2.79800 678 ft 148 kts 239°
2026-05-05 14:07 39.56884 2.78982 544 ft 148 kts 239°
2026-05-05 14:08 39.56547 2.78283 424 ft 146 kts 237°
2026-05-05 14:08 39.55845 2.76785 177 ft 145 kts 236°
2026-05-05 14:08 39.55485 2.76043 53 ft 142 kts 239°
2026-05-05 14:08 39.55031 2.75091 28 ft 100 kts 239°
2026-05-05 14:09 39.54767 2.74530 35 ft 47 kts 238°